Miscellaneous Local Product
Issued by NWS North Platte, NE

Home | Current Version | Previous Version | Text Only | Print | Product List | Glossary On
Versions: 1 2 3 4 5 6 7 8 9 10 11 12 13 14 15 16 17 18 19 20 21 22 23 24 25 26 27 28 29 30 31 32 33 34 35 36 37 38 39 40 41 42 43 44 45 46 47 48 49 50
532
AXUS43 KLBF 061110
MISLBF


WESTERN AND NORTH CENTRAL NEBRASKA HOURLY WEATHER ROUNDUP
NATIONAL WEATHER SERVICE NORTH PLATTE NE
600 AM CDT FRI MAY 06 2016

NOTE: "FAIR" INDICATES FEW OR NO CLOUDS BELOW 12,000 FEET WITH NO
SIGNIFICANT WEATHER AND/OR OBSTRUCTIONS TO VISIBILITY.

NOTE: STATIONS NOT REPORTING VARIABLES SUCH AS SKY/WEATHER OR
PRESSURE ARE PROVIDED BY RAWS AND APRS NETWORKS AND ARE NOT UNDER
NATIONAL WEATHER SERVICE QUALITY CONTROL.

...OBSERVATIONS IN AND NEAR THE EASTERN PANHANDLE OF NEBRASKA...

CITY           SKY/WX    TMP DP  RH WIND       PRES   REMARKS
PINE RIDGE     PTCLDY    54  44  69 CALM      29.90F
CHADRON        PTCLDY    50  45  83 N7        29.88S
ALLIANCE       CLOUDY    45  42  89 SE9       29.94S
SIDNEY         CLOUDY    52  44  74 SW13      29.96F
CRESCENT LAKE    N/A     52  46  80 S6          N/A
BIG SPRINGS      N/A     52  47  84 NE6         N/A
$$

...OBSERVATIONS IN NORTHERN NEBRASKA AND FAR SOUTHERN SOUTH DAKOTA...

CITY           SKY/WX    TMP DP  RH WIND       PRES   REMARKS
WINNER         LGT RAIN  65  48  54 S21G30    29.84F
VALENTINE      CLEAR     60  47  61 SW15      29.90S
THEDFORD       PTCLDY    60  47  62 S12       29.96S
AINSWORTH      CLEAR     58  46  65 S14       29.92S
O`NEILL        CLEAR     59  46  61 S12       29.93F
ORD            PTCLDY    51  44  77 CALM      29.96F
BROKEN BOW     LGT RAIN  55  45  68 SW10      29.97F
VALENTINE NWR    N/A     58  46  65 S10         N/A
BUTTE            N/A     62  47  59 S14G22      N/A
HALSEY           N/A     58  45  62 S6G16       N/A
CHAMBERS         N/A     58  45  62 S7          N/A
EWING            N/A     58  46  64 SW5         N/A
$$

...OBSERVATIONS IN SOUTHWEST NEBRASKA AND FAR NORTHEAST COLORADO...

CITY           SKY/WX    TMP DP  RH WIND       PRES   REMARKS
HOLYOKE        FAIR      54  45  71 S3        29.97R
IMPERIAL       CLOUDY    53  45  74 E6        29.97S
OGALLALA       CLOUDY    54  45  71 CALM      29.97S
NORTH PLATTE   CLEAR     57  45  64 S9        29.96F
MCCOOK         CLOUDY    54  45  71 SE7       29.98F
LEXINGTON      CLEAR     50  44  79 S6        29.99S
PAXTON           N/A     53  47  82 CALM        N/A
STAPLETON        N/A     50  45  81 CALM        N/A
GOTHENBURG       N/A     59  44  56 S7          N/A
CALLAWAY         N/A     50  45  84 S8          N/A
$$

...OBSERVATIONS IN CENTRAL LINCOLN COUNTY AREA...

CITY           SKY/WX    TMP DP  RH WIND       PRES   REMARKS
N.P. AIRPORT   CLEAR     57  45  64 S9        29.96F
N.P. DOWNTOWN    N/A     58  47  66 MISG        N/A
N.P. SOUTHEAST   N/A     58  46  65 S3          N/A
N.P. HILLCREST   N/A     57  46  68 S3          N/A
$$

...SOME OBSERVATIONS FROM AROUND THE REGION...

CITY           SKY/WX    TMP DP  RH WIND       PRES   REMARKS
DENVER         CLOUDY    53  39  59 SW10      29.97R
LARAMIE        CLOUDY    42  35  76 S9        30.05F
CHEYENNE       CLOUDY    44  38  79 W9        30.01F
SCOTTSBLUFF    CLOUDY    60  43  53 E3        29.93S
RAPID CITY     PTCLDY    49  40  71 N5        29.85S
BISMARCK       CLOUDY    50  46  86 N5        29.79R
PIERRE         PTCLDY    57  48  72 S5        29.80S
SIOUX FALLS    PTCLDY    58  44  60 S9        29.90F
OMAHA          PTCLDY    53  44  71 SE9       29.99S
GRAND ISLAND   CLEAR     58  42  55 S12       29.99F
KANSAS CITY    PTCLDY    49  40  71 S6        30.06R
WICHITA        CLEAR     50  43  77 CALM      30.05S
OKLAHOMA CITY  CLOUDY    51  46  83 S5        30.07R
DALLAS         PTCLDY    58  49  72 N3        30.05R
AMARILLO       CLOUDY    54  45  71 S15       30.06R
DODGE CITY     CLOUDY    55  42  61 SE14      30.04S
HAYS           CLOUDY    54  39  58 S5        30.03S
GOODLAND       CLOUDY    56  45  66 S21       29.98F
$$




USA.gov is the U.S. government's official web portal to all federal, state and local government web resources and services.